Home   Weather   Prague   Past weeks

Flag for Czech Republic Past Weather in Prague, Czech Republic — Yesterday and Last 2 Weeks

Now
41 °F

Sunny.


Feels Like: 36 °F
Forecast: 39 / 44 °F
Wind: 8 mph from Northwest

Location: Prague Ruzyne Airport

Current Time: Apr 27, 2017 at 9:28:54 am

Latest Report: Apr 27, 2017 at 9:00 am


Visibility: 10 mi

Pressure: 29.92 "Hg

Humidity: 76%

Dew Point: 34 °F

Location of PragueLocation

Past Weather in Prague — Graph

°F

Prague Temperature Yesterday

Maximum temperature yesterday: 41 °F (at 12:00 am)
Minimum temperature yesterday: 36 °F (at 8:00 am)
Average temperature yesterday: 39 °F

High & Low Weather Summary for the Past Weeks

 TemperatureHumidityPressure
High61 °F (Apr 25, 1:00 pm)100% (Apr 18, 6:30 am)30.48 "Hg (Apr 18, 6:30 am)
Low27 °F (Apr 21, 5:00 am)33% (Apr 24, 6:00 pm)29.65 "Hg (Apr 25, 5:30 am)
Average43 °F69%30.02 "Hg
* Reported Apr 12 8:00 am — Apr 27 8:00 am, Prague, Weather by CustomWeather, © 2017

Note: Actual official high and low records may vary slightly from our data, if they occured in-between our weather recording intervals... More about our weather records

Advertising

Prague Weather History for the Previous 24 Hours

Scroll right to see more
 ConditionsComfort  
Time TempWeatherWind HumidityBarometerVisibility
8:00 am
Thu, Apr 27
39 °FSunny.6 mph87%29.89 "Hg10 mi
7:30 am39 °FClear.3 mph87%29.89 "Hg6 mi
7:00 am37 °FClear.5 mph93%29.89 "Hg4 mi
6:30 am37 °FClear.5 mph93%29.89 "Hg4 mi
6:00 am37 °FClear.2 mph93%29.89 "Hg5 mi
5:30 am37 °FClear.1 mph93%29.86 "Hg10 mi
5:00 am37 °FClear.1 mph93%29.86 "Hg6 mi
4:30 am37 °FClear.2 mph93%29.86 "Hg10 mi
3:30 am37 °FPassing clouds.3 mph93%29.86 "HgN/A
3:00 am37 °FPassing clouds.3 mph93%29.86 "HgN/A
2:30 am39 °FPassing clouds.3 mph87%29.89 "HgN/A
2:00 am39 °FPassing clouds.2 mph87%29.89 "HgN/A
1:30 am39 °FPassing clouds.5 mph87%29.89 "HgN/A
1:00 am39 °FPassing clouds.3 mph87%29.89 "HgN/A
12:30 am39 °FPassing clouds.3 mph87%29.89 "HgN/A
12:00 am39 °FPassing clouds.2 mph87%29.89 "HgN/A
11:30 pm
Wed, Apr 26
39 °FPassing clouds.5 mph87%29.89 "HgN/A
11:00 pm39 °FClear.3 mph87%29.89 "Hg10 mi
10:30 pm39 °FClear.5 mph87%29.89 "Hg10 mi
10:00 pm41 °FPassing clouds.3 mph81%29.89 "HgN/A
9:30 pm39 °FPassing clouds.3 mph87%29.89 "HgN/A
8:30 pm41 °FPassing clouds.6 mph81%29.86 "HgN/A
8:00 pm41 °FPartly sunny.6 mph81%29.86 "HgN/A
7:30 pm41 °FPartly sunny.6 mph81%29.86 "HgN/A
7:00 pm41 °FPartly sunny.7 mph81%29.86 "HgN/A
6:30 pm41 °FBroken clouds.6 mph81%29.86 "HgN/A
6:00 pm41 °FLight rain. Partly sunny.9 mph87%29.86 "HgN/A
5:30 pm41 °FLight rain. Broken clouds.7 mph87%29.86 "HgN/A
5:00 pm41 °FLight rain. Broken clouds.8 mph81%29.86 "HgN/A
4:30 pm41 °FLight rain. Partly sunny.9 mph87%29.86 "HgN/A
4:00 pm41 °FLight rain. Partly sunny.10 mph87%29.86 "HgN/A
3:30 pm39 °FLight rain. Partly sunny.9 mph87%29.86 "HgN/A
3:00 pm39 °FLight rain. Partly sunny.12 mph87%29.86 "HgN/A
2:00 pm39 °FLight rain. Mostly cloudy.10 mph87%29.86 "Hg6 mi
1:30 pm39 °FLight rain. Mostly cloudy.9 mph87%29.83 "Hg6 mi
1:00 pm37 °FLight rain. Mostly cloudy.12 mph93%29.83 "Hg5 mi
12:30 pm37 °FLight rain. Mostly cloudy.12 mph93%29.83 "Hg6 mi
12:00 pm37 °FLight rain. More clouds than sun.12 mph93%29.83 "Hg6 mi
11:30 am37 °FLight rain. Partly sunny.12 mph93%29.83 "HgN/A
11:00 am37 °FLight rain. Broken clouds.10 mph93%29.83 "HgN/A
10:30 am37 °FLight rain. Mostly cloudy.12 mph93%29.83 "Hg5 mi
10:00 am37 °FLight rain. Mostly cloudy.12 mph87%29.83 "Hg4 mi
9:30 am37 °FLight rain. Mostly cloudy.10 mph87%29.83 "Hg4 mi
9:00 am37 °FLight rain. Mostly cloudy.10 mph87%29.80 "Hg4 mi
Weather by CustomWeather, © 2017

See weather overviewHow to use our weather pages